Regional Weather Roundup
Issued by NWS

Home | Current Version | Previous Version | Text Only | Print | Product List | Glossary Off
Versions: 1 2 3 4 5 6 7 8 9 10 11 12 13 14 15 16 17 18 19 20 21 22 23 24 25 26 27 28 29 30 31 32 33 34 35 36 37 38 39 40 41 42 43 44 45 46 47 48 49 50

000
ASUS43 KIND 212109
RWRIN

WEATHER ROUNDUP FOR INDIANA
NATIONAL WEATHER SERVICE INDIANAPOLIS IN
400 PM EST SUN JAN 21 2018

NOTE: "FAIR" INDICATES FEW OR NO CLOUDS BELOW 12,000 FEET WITH NO
SIGNIFICANT WEATHER AND/OR OBSTRUCTIONS TO VISIBILITY.

* - STATION DOES NOT REPORT WEATHER SUCH AS PRECIPITATION OR FOG.

+ - STATION NOT QUALITY CONTROLLED BY THE NATIONAL WEATHER SERVICE.
    USE DATA WITH CAUTION...ESPECIALLY DEWPOINT AND RELATIVE
    HUMIDITY OBSERVATIONS.

INZ001>003-010>013-019-020-212200-
NORTHWEST INDIANA

CITY           SKY/WX    TMP DP  RH WIND       PRES   REMARKS
KNOX *+        CLOUDY    43  43 100 S5        29.93R
LA PORTE +     FOG       38  38  99 SE3       29.93S VSB<1/4
MICHIGAN CITY+ MIX PCPN  41  41 100 CALM      29.93S
MONTICELLO +   FOG       47  45  95 S5        29.93S VSB<1/4
RENSSELAER +   FOG       43  41  93 S7        29.92S VSB 1/4
VALPARAISO     FOG       43  43 100 SE5       29.92S VSB 1/4

$$

LMZ046-743>745-212200-
SOUTHERN LAKE MICHIGAN

STATION/POSITION TIME  TEMP    WIND        PRES    WAVE
                       AIR SEA DIR/SP/G            HT
                 (UTC) (F)     (DEG/KT/KT) (MB)    (FT)
BURNS HARBOR     2040   44     190/  8/ 11 1013.5S
MICHIGAN CITY    2040   42     150/  6/  7   N/A

$$

INZ004-005-014>016-021>024-212200-
NORTH CENTRAL INDIANA

CITY           SKY/WX    TMP DP  RH WIND       PRES   REMARKS
ELKHART        FOG       41  41 100 CALM      29.95R VSB 1/4
GOSHEN         FOG       43  42  97 S6        29.94S VSB<1/4
LOGANSPORT +   FOG       43  43 100 S6        29.95S VSB<1/4
PERU/GRISSOM   FOG       47  47 100 S9        29.95R VSB 1/2
ROCHESTER +    FOG       45 N/A N/A S3        29.95R VSB 1/4
SOUTH BEND     FOG       42  41  96 E3        29.94R VSB 1/4
WARSAW +       FOG       43  43 100 S3        29.95R VSB 1/4

$$

INZ006>009-017-018-025>027-212200-
NORTHEAST INDIANA

CITY           SKY/WX    TMP DP  RH WIND       PRES   REMARKS
AUBURN +       FOG      N/A N/A N/A CALM      29.97R VSB 1/4
FORT WAYNE     FOG       46  45  96 S6        29.97S VSB 1/8
HUNTINGTON +   FOG       45  44  96 S6        29.97R VSB 1/4
KENDALLVILLE + FOG       42  42 100 S5        29.96R VSB<1/4

$$

INZ028-029-035-036-043>045-051>053-212200-
WEST CENTRAL INDIANA

CITY           SKY/WX    TMP DP  RH WIND       PRES   REMARKS
CRAWFORDSVL +  CLOUDY    46  46 100 MISG      29.95  FOG
GREENCASTLE +  CLOUDY    48  46  93 S7        29.97S FOG
LAFAYETTE      FOG       47  47 100 S3        29.94S VSB 3/4
TERRE HAUTE    CLOUDY    49  47  93 S13       29.96S FOG

$$

INZ030>032-037>040-046>048-054>057-064-065-212200-
CENTRAL INDIANA

CITY           SKY/WX    TMP DP  RH WIND       PRES   REMARKS
COLUMBUS       CLOUDY    50  46  87 S9        30.02R
FISHERS *+     CLOUDY    48  48 100 S8        29.98S
FRANKFORT +    FOG       49  48  97 S8        29.97R VSB 1/2
GREENWOOD *+   CLOUDY    51  48  89 S8        30.00S
INDIANAPOLIS   DRZL/FOG  49  49 100 S8        29.98F VSB 1
-EAGLE CREEK   CLOUDY    49  48  97 S7        29.97S FOG
MARION +       FOG      N/A N/A N/A S9        29.98R VSB 1/2
MT COMFORT *+  CLOUDY    48  48 100 S9        29.99S
SHELBYVILLE    CLOUDY    51  46  83 S12       30.00S
ZIONSVILLE +   FOG       46  46 100 S12       29.97S VSB 1

$$

INZ033-034-041-042-049-050-058-059-212200-
EAST CENTRAL INDIANA

CITY           SKY/WX    TMP DP  RH WIND       PRES   REMARKS
MUNCIE         CLOUDY    50  46  86 S9        29.99R FOG
RICHMOND +     CLOUDY    43  43 100 S8        30.02R

$$

INZ060-061-067>069-081>083-085>088-212200-
SOUTHWEST INDIANA

CITY           SKY/WX    TMP DP  RH WIND       PRES   REMARKS
EVANSVILLE     CLOUDY    53  51  93 S8        30.01S
HUNTINGBURG +  CLOUDY    52  49  89 S15       30.02S
WASHINGTON +   CLOUDY    46  45  93 S10       29.99S FOG

$$

INZ062-063-066-070>080-084-089>092-212200-
SOUTH CENTRAL AND SOUTHEAST INDIANA

CITY           SKY/WX    TMP DP  RH WIND       PRES   REMARKS
BATESVILLE *+    N/A    N/A N/A N/A MISG        N/A
BEDFORD +      CLOUDY    52  48  87 S8        30.00F
BLOOMINGTON    CLOUDY    51  49  92 S10       29.99S FOG
FRENCH LICK *+ CLOUDY    52 N/A N/A S7        30.01F
MADISON *+     CLOUDY    54  46  76 S9        30.06R
NORTH VERNON + CLOUDY    50  46  87 S7        30.03R
SEYMOUR +      CLOUDY    54  46  76 S6        30.02S

$$




USA.gov is the U.S. government's official web portal to all federal, state and local government web resources and services.